Caldwell, ID

2:35 PM MDT on October 19, 2019 (GMT -0600)
Caldwell Industrial

Weather History for KEUL - August, 2019

Change the Weather History Date:

Monday, August 26, 2019

  Actual Average (KBOI) Record (KBOI)
Temperature  
Mean Temperature 67 °F -  
Max Temperature 84 °F 85 °F 104 °F (1996)
Min Temperature 52 °F 52 °F 39 °F (1993)
Cooling Degree Days 2    
Growing Degree Days 17 (Base 50)    
Moisture  
Dew Point 40 °F    
Average Humidity 39    
Maximum Humidity 77    
Minimum Humidity 18    
Precipitation  
Precipitation 0.00 in - - ()
Sea Level Pressure  
Sea Level Pressure 30.07 in    
Wind  
Wind Speed 6 mph ()    
Max Wind Speed 13 mph    
Max Gust Speed 17 mph    
Visibility 9.9 miles    
Events      
Averages and records for this station are not official NWS values.
T = Trace of Precipitation, MM = Missing Value Source: Averaged Metar Reports

Daily Weather History Graph

Daily Weather History Graph

Search for Another Location

Airport or City:

Astronomy

Aug. 26, 2019 Rise Set
Actual Time 7:03 AM MDT 8:32 PM MDT
Civil Twilight 6:33 AM MDT 9:02 PM MDT
Nautical Twilight 5:57 AM MDT 9:38 PM MDT
Astronomical Twilight 5:18 AM MDT 10:17 PM MDT
Moon 2:25 AM MDT (8/26) 6:07 PM MDT (8/26)
Length of Visible Light 14h 29m
Length of Day
13h 29m
Waning Crescent, 19% of the Moon is Illuminated
Aug 26
Waning Crescent
Aug 30
New
Sep 5
First Quarter
Sep 13
Full
Sep 21
Last Quarter

Hourly Weather History & Observations

Time (MDT) Temp. Dew Point Humidity Pressure Visibility Wind Dir Wind Speed Gust Speed Precip Events Conditions
12:56 AM 63.0 °F 39.0 °F 41% 30.04 in 10.0 mi SW 9.2 mph - N/A   Clear
1:56 AM 63.0 °F 39.9 °F 43% 30.04 in 10.0 mi WSW 10.4 mph - N/A   Clear
2:56 AM 61.0 °F 39.9 °F 46% 30.04 in 10.0 mi West 9.2 mph - N/A   Clear
3:56 AM 60.1 °F 39.9 °F 47% 30.05 in 10.0 mi West 8.1 mph - N/A   Clear
4:56 AM 57.0 °F 41.0 °F 55% 30.06 in 10.0 mi South 3.5 mph - N/A   Clear
5:56 AM 55.0 °F 42.1 °F 62% 30.07 in 10.0 mi West 4.6 mph - N/A   Clear
6:56 AM 55.0 °F 42.1 °F 62% 30.09 in 10.0 mi West 5.8 mph - N/A   Clear
7:56 AM 52.0 °F 45.0 °F 77% 30.12 in 10.0 mi ENE 3.5 mph - N/A   Clear
8:56 AM 61.0 °F 44.1 °F 54% 30.14 in 10.0 mi WNW 3.5 mph - N/A   Clear
9:56 AM 66.0 °F 42.1 °F 42% 30.14 in 8.0 mi West 8.1 mph - N/A   Clear
10:56 AM 70.0 °F 42.1 °F 36% 30.14 in 10.0 mi West 8.1 mph - N/A   Clear
11:56 AM 73.9 °F 43.0 °F 33% 30.13 in 10.0 mi West 5.8 mph - N/A   Clear
12:56 PM 77.0 °F 42.1 °F 29% 30.12 in 10.0 mi West 10.4 mph - N/A   Clear
1:56 PM 79.0 °F 39.9 °F 25% 30.09 in 10.0 mi WNW 12.7 mph - N/A   Clear
2:56 PM 81.0 °F 39.0 °F 22% 30.08 in 10.0 mi NW 4.6 mph - N/A   Clear
3:56 PM 81.0 °F 37.0 °F 21% 30.05 in 10.0 mi WNW 11.5 mph 17.3 mph N/A   Clear
4:56 PM 82.9 °F 36.0 °F 19% 30.04 in 10.0 mi Variable 4.6 mph - N/A   Clear
5:56 PM 82.9 °F 35.1 °F 18% 30.04 in 10.0 mi NW 9.2 mph - N/A   Clear
6:56 PM 82.0 °F 36.0 °F 19% 30.03 in 10.0 mi West 5.8 mph - N/A   Clear
7:56 PM 78.1 °F 39.0 °F 25% 30.03 in 10.0 mi West 5.8 mph - N/A   Clear
8:56 PM 73.9 °F 39.0 °F 28% 30.02 in 10.0 mi SW 3.5 mph - N/A   Clear
9:56 PM 70.0 °F 37.9 °F 31% 30.02 in 10.0 mi SW 3.5 mph - N/A   Clear
10:56 PM 61.0 °F 44.1 °F 54% 30.03 in 10.0 mi NE 5.8 mph - N/A   Clear
11:56 PM 62.1 °F 42.1 °F 48% 30.03 in 10.0 mi Calm Calm - N/A   Clear